Big Rapids, MI

7:41 PM EST on February 23, 2017 (GMT -0500)
Roben-Hood

Weather History for KRQB - January, 2013

Change the Weather History Date:

Thursday, January 17, 2013

  Actual Average Record
Temperature  
Mean Temperature 24 °F -  
Max Temperature 31 °F 28 °F 50 °F (1990)
Min Temperature 16 °F 11 °F -16 °F (1976)
Degree Days  
Heating Degree Days 42    
Moisture  
Dew Point 15 °F    
Average Humidity 72    
Maximum Humidity 82    
Minimum Humidity 60    
Precipitation  
Precipitation 0.00 in - - ()
Sea Level Pressure  
Sea Level Pressure 30.15 in    
Wind  
Wind Speed 7 mph (NNW)    
Max Wind Speed 20 mph    
Max Gust Speed 30 mph    
Visibility 7 miles    
Events Snow    
Averages and records for this station are not official NWS values.
T = Trace of Precipitation, MM = Missing Value Source: NWS Daily Summary

Daily Weather History Graph

Daily Weather History Graph

Search for Another Location

Airport or City:

Trip Planner

Search our weather history database for the weather conditions in past years. The results will help you decide how hot, cold, wet, or windy it might be!

Date:

Astronomy

Jan. 17, 2013 Rise Set
Actual Time 8:11 AM EST 5:33 PM EST
Civil Twilight 7:39 AM EST 6:05 PM EST
Nautical Twilight 7:04 AM EST 6:40 PM EST
Astronomical Twilight 6:30 AM EST 7:14 PM EST
Moon 11:03 AM EST (1/17) No Moon Set
Length of Visible Light 10h 25m
Length of Day
9h 22m
Waxing Crescent, 37% of the Moon is Illuminated
Jan 17
Waxing Crescent
Jan 18
First Quarter
Jan 26
Full
Feb 3
Last Quarter
Feb 10
New

Hourly Weather History & Observations

Time (EST) Temp. Windchill Dew Point Humidity Pressure Visibility Wind Dir Wind Speed Gust Speed Precip Events Conditions
12:14 AM 31.5 °F 24.9 °F 26.6 °F 82% 29.93 in 10.0 mi WNW 6.9 mph - N/A   Overcast
12:34 AM 31.6 °F 26.0 °F 26.6 °F 82% 29.93 in 10.0 mi WNW 5.8 mph - N/A   Overcast
12:54 AM 31.5 °F 21.4 °F 25.7 °F 79% 29.95 in 7.0 mi North 13.8 mph 17.3 mph N/A Snow Light Snow
1:14 AM 30.4 °F 21.5 °F 23.4 °F 75% 29.96 in 10.0 mi North 10.4 mph - N/A   Overcast
1:34 AM 29.8 °F 19.8 °F 21.2 °F 70% 29.96 in 10.0 mi North 12.7 mph - N/A   Overcast
1:54 AM 29.3 °F 20.2 °F 21.2 °F 72% 29.96 in 10.0 mi North 10.4 mph - N/A   Overcast
2:14 AM 29.3 °F 21.5 °F 21.2 °F 72% 29.98 in 10.0 mi North 8.1 mph - N/A   Overcast
2:34 AM 29.3 °F 22.3 °F 21.4 °F 72% 29.99 in 10.0 mi North 6.9 mph - N/A   Overcast
2:54 AM 29.1 °F 22.1 °F 21.0 °F 72% 30.01 in 10.0 mi NNW 6.9 mph - N/A   Overcast
3:14 AM 28.2 °F 22.0 °F 19.4 °F 70% 30.02 in 10.0 mi NNW 5.8 mph - N/A   Overcast
3:34 AM 27.7 °F 21.3 °F 19.2 °F 71% 30.03 in 10.0 mi North 5.8 mph - N/A   Overcast
4:35 AM 26.6 °F 18.2 °F 17.1 °F 67% 30.07 in 10.0 mi North 8.1 mph - N/A   Overcast
4:54 AM 26.4 °F 18.0 °F 16.2 °F 65% 30.07 in 10.0 mi NNW 8.1 mph - N/A   Overcast
5:14 AM 26.1 °F 20.5 °F 17.4 °F 70% 30.07 in 10.0 mi NNW 4.6 mph - N/A Snow Light Snow
5:35 AM 25.7 °F - 18.1 °F 73% 30.08 in 10.0 mi Calm Calm - N/A   Overcast
5:54 AM 25.7 °F 19.0 °F 18.3 °F 74% 30.08 in 10.0 mi WNW 5.8 mph - N/A   Overcast
6:14 AM 25.5 °F 21.3 °F 17.8 °F 72% 30.08 in 10.0 mi NW 3.5 mph - N/A   Overcast
6:34 AM 25.5 °F 19.9 °F 18.3 °F 74% 30.10 in 10.0 mi NW 4.6 mph - N/A Snow Light Snow
6:54 AM 25.2 °F 20.9 °F 18.1 °F 75% 30.10 in 10.0 mi WNW 3.5 mph - N/A Snow Light Snow
7:14 AM 24.8 °F 19.1 °F 18.1 °F 76% 30.11 in 7.0 mi NNW 4.6 mph - N/A Snow Light Snow
7:34 AM 23.9 °F 18.0 °F 16.5 °F 73% 30.11 in 7.0 mi North 4.6 mph - N/A Snow Light Snow
7:54 AM 23.7 °F 19.3 °F 16.9 °F 75% 30.12 in 3.0 mi NNW 3.5 mph - N/A Snow Light Snow
8:14 AM 23.7 °F 19.3 °F 17.4 °F 77% 30.13 in 3.0 mi North 3.5 mph - N/A Snow Light Snow
8:34 AM 23.7 °F - 17.8 °F 78% 30.14 in 3.0 mi Calm Calm - N/A Snow Light Snow
8:54 AM 23.7 °F 19.3 °F 18.3 °F 80% 30.15 in 3.0 mi NNW 3.5 mph - N/A Snow Light Snow
9:14 AM 23.5 °F 19.1 °F 17.6 °F 78% 30.16 in 1.8 mi NNW 3.5 mph - N/A Snow Light Snow
9:34 AM 23.4 °F 16.2 °F 17.4 °F 78% 30.16 in 4.0 mi NNW 5.8 mph - N/A Snow Light Snow
9:54 AM 23.5 °F 17.6 °F 17.6 °F 78% 30.17 in 1.8 mi NNW 4.6 mph - N/A Snow Light Snow
10:14 AM 23.5 °F 19.1 °F 17.6 °F 78% 30.17 in 3.0 mi NW 3.5 mph - N/A Snow Light Snow
10:34 AM 23.0 °F 15.8 °F 16.9 °F 77% 30.18 in 5.0 mi North 5.8 mph - N/A Snow Light Snow
10:54 AM 22.8 °F 14.5 °F 17.2 °F 79% 30.18 in 4.0 mi North 6.9 mph - N/A Snow Light Snow
11:14 AM 22.8 °F 14.5 °F 17.1 °F 79% 30.18 in 2.5 mi North 6.9 mph - N/A Snow Light Snow
11:35 AM 23.0 °F 17.0 °F 16.7 °F 77% 30.18 in 3.0 mi NNE 4.6 mph - N/A Snow Light Snow
11:54 AM 22.8 °F 15.5 °F 16.5 °F 77% 30.17 in 4.0 mi North 5.8 mph - N/A Snow Light Snow
12:14 PM 22.5 °F 16.3 °F 16.7 °F 79% 30.17 in 2.5 mi North 4.6 mph - N/A Snow Light Snow
12:34 PM 23.0 °F 14.7 °F 17.1 °F 78% 30.16 in 4.0 mi NNW 6.9 mph - N/A Snow Light Snow
12:54 PM 23.0 °F 13.1 °F 14.5 °F 70% 30.16 in 7.0 mi NNW 9.2 mph - N/A Snow Light Snow
1:15 PM 22.8 °F 15.5 °F 13.8 °F 68% 30.16 in 10.0 mi NNW 5.8 mph - N/A Snow Light Snow
1:34 PM 22.6 °F 11.3 °F 13.8 °F 69% 30.16 in 5.0 mi WNW 11.5 mph - N/A Snow Light Snow
1:54 PM 22.5 °F 12.4 °F 14.0 °F 70% 30.16 in 3.0 mi NW 9.2 mph - N/A Snow Light Snow
2:14 PM 22.5 °F 10.5 °F 14.0 °F 70% 30.16 in 4.0 mi WNW 12.7 mph 19.6 mph N/A Snow Light Snow
2:34 PM 22.1 °F 12.0 °F 15.1 °F 74% 30.16 in 1.2 mi NW 9.2 mph - N/A Snow Light Snow
2:54 PM 22.5 °F 7.6 °F 14.0 °F 70% 30.16 in 0.8 mi NW 19.6 mph 26.5 mph N/A Snow Light Snow
3:14 PM 20.7 °F 6.6 °F 13.3 °F 73% 30.17 in 0.8 mi NW 16.1 mph 23.0 mph N/A Snow Light Snow
3:35 PM 20.1 °F 5.0 °F 10.0 °F 65% 30.18 in 7.0 mi NW 18.4 mph 29.9 mph N/A   Overcast
3:54 PM 19.4 °F 7.9 °F 10.0 °F 67% 30.18 in 7.0 mi NW 10.4 mph 13.8 mph N/A   Overcast
4:14 PM 19.0 °F 7.5 °F 8.6 °F 64% 30.17 in 10.0 mi NW 10.4 mph - N/A   Scattered Clouds
4:34 PM 19.4 °F 6.0 °F 7.5 °F 60% 30.19 in 10.0 mi NW 13.8 mph 18.4 mph N/A   Mostly Cloudy
4:54 PM 18.9 °F 5.3 °F 7.3 °F 61% 30.19 in 7.0 mi NNW 13.8 mph 18.4 mph N/A   Overcast
5:15 PM 18.5 °F 7.5 °F 7.7 °F 63% 30.21 in 10.0 mi NW 9.2 mph - N/A   Overcast
5:34 PM 18.3 °F 7.3 °F 7.3 °F 62% 30.21 in 10.0 mi NNW 9.2 mph - N/A   Overcast
5:54 PM 17.4 °F 8.0 °F 6.4 °F 62% 30.22 in 10.0 mi NW 6.9 mph - N/A   Mostly Cloudy
6:15 PM 17.4 °F 8.0 °F 6.1 °F 61% 30.23 in 10.0 mi NW 6.9 mph - N/A   Overcast
6:34 PM 17.2 °F 7.8 °F 5.9 °F 61% 30.23 in 10.0 mi NW 6.9 mph - N/A   Overcast
6:54 PM 17.2 °F 7.8 °F 6.8 °F 64% 30.24 in 10.0 mi NW 6.9 mph - N/A   Overcast
7:14 PM 17.4 °F 9.1 °F 7.2 °F 64% 30.24 in 10.0 mi NW 5.8 mph - N/A   Overcast
7:34 PM 17.4 °F 10.4 °F 7.7 °F 66% 30.24 in 10.0 mi NW 4.6 mph - N/A   Overcast
7:54 PM 17.6 °F 12.3 °F 8.2 °F 67% 30.25 in 10.0 mi WNW 3.5 mph - N/A   Overcast
8:14 PM 17.6 °F 9.3 °F 9.1 °F 69% 30.25 in 7.0 mi WNW 5.8 mph - N/A Snow Light Snow
8:34 PM 17.6 °F 9.3 °F 10.4 °F 73% 30.26 in 4.0 mi WNW 5.8 mph - N/A Snow Light Snow
8:54 PM 17.6 °F 9.3 °F 10.4 °F 73% 30.26 in 10.0 mi West 5.8 mph - N/A   Overcast
9:14 PM 17.6 °F 12.3 °F 10.4 °F 73% 30.27 in 10.0 mi WNW 3.5 mph - N/A   Overcast
9:54 PM 18.0 °F 9.8 °F 10.9 °F 74% 30.27 in 7.0 mi NW 5.8 mph - N/A Snow Light Snow
10:14 PM 17.2 °F 11.9 °F 10.4 °F 75% 30.27 in 10.0 mi NNE 3.5 mph - N/A   Overcast
10:34 PM 16.5 °F 11.0 °F 10.8 °F 78% 30.27 in 7.0 mi NE 3.5 mph - N/A   Overcast
10:55 PM 16.0 °F - 10.9 °F 81% 30.27 in 7.0 mi Calm Calm - N/A   Overcast
11:14 PM 16.2 °F 6.5 °F 9.1 °F 74% 30.27 in 10.0 mi NW 6.9 mph - N/A Snow Light Snow
11:34 PM 16.3 °F 7.8 °F 9.1 °F 73% 30.28 in 5.0 mi NW 5.8 mph - N/A Snow Light Snow
11:55 PM 16.2 °F 6.5 °F 8.6 °F 72% 30.28 in 10.0 mi NW 6.9 mph - N/A   Overcast